STARLINK-38219, 100215

Orbit data source: Space-Track

STARLINK-38219, 100215 is a payload satellite owned by SpaceX/Seattle (US) in SSO that was launched on Tue, 04 Aug 2026 UTC launched from the Air Force Western Test Range (AFWTR). Payload-class satellites include a variety of spacecraft equipped with specific instruments for various scientific and technological missions. These include communications satellites like Starlink; space stations such as the ISS; scientific satellites like the Hubble; Earth observation satellites from companies like Planet Labs, Umbra, and HawkEye 360; GPS; miniature CubeSats for education and research; and military/defense satellites.

Loading next visibility...
Identifier
100215, 2026-177C
Orbit
SSO
Country
Flag of USUS
Related business
Manufacturer
SpaceX/Seattle
Mission
Operational spacecraft
Bus & Motor
STARLINK V2MO, Unknown motor
Mass
575 kg wet, ~530 kg dry
Launch date (UTC)
2026-08-04 (1 month ago)
Launch vehicle
Unknown
Launch site
Air Force Western Test Range (AFWTR)
Object type
Payload
Rocket body
Debris
Shape & HBR
BOX + PAN, 17.7 m
Radar Cross Section
RCS unknown

Expand to show TLE details & history
Last TLE update: 7 hours ago

TLE from 7 hours ago
0 STARLINK-38219
1 A0215U 26177C   26255.95462152 -.00476083  00000-0 -82993-2 0  9998
2 A0215  97.2830 306.6970 0001140  90.8474 269.2910 15.52368440  7327
Epoch: 2026-09-12T22:54Z
TLE epoch observation values (Epoch: 2026-09-12T22:54:39.299Z)
Latitude
0.00003°
Longitude
-28.92296°
Altitude
412.96 km
Speed
7.663 km/s
True Right ascension
20h 26m 47s
True Declination
0° 00' 00"
Sunlit
Object was in full shadow at epoch
Visualization orbit readout
Latitude
Unknown
Longitude
Unknown
Altitude
Unknown
Speed
Unknown
Apparent Right ascension
Unknown
Apparent Declination
Unknown
Sunlit
N/A
Visualization observer readout
Local Sidereal Time
22:17:05
Azimuth
Unknown
Elevation
Unknown
Doppler factor
Unknown
Orbital elements
Apogee altitude
407.504 km
Perigee altitude
405.957 km
Semi-major axis
6,784.868 km
Eccentricity
0.00011
Inclination
97.283°
RAAN
306.697°
Arg. of periapsis
90.8474°
True anomaly
269.27794°
Mean anomaly
269.291°
Eccentric anomaly
269.28447°
Mean motion
3.88357 °/min
Orbital period
92.7 mins
BSTAR
-0.0082993
Loading maneuver chart data...
Computing Atmospheric mass density...
Loading historical data...
Loading historical data...
Loading historical data...
Loading historical data...
Loading historical data...
Loading historical data...
Loading historical data...

Documentation

Showing up to 5 results
|